Tracking 30402 objects as of 13-May-2025
HD Live streaming from Space Station
objects crossing your sky now

KX-09

Track KX-09 now!
10-day predictions


NORAD ID: 44520
Int'l Code: 2019-058B
Perigee: 582.5 km
Apogee: 595.2 km
Inclination: 97.8 °
Period: 96.3 minutes
Semi major axis: 6959 km
RCS: Unknown
Launch date: August 30, 2019
Source: People's Republic of China (PRC)
Launch site: Jiuquan Satellite Launch Center, China (JSC)
Your satellite tracking list
Your tracking list is empty




NASA's NSSDC Master Catalog

Two Line Element Set (TLE):
1 44520U 19058B   25132.85685272  .00001651  00000-0  15540-3 0  9995
2 44520  97.7872 143.5794 0009106 235.2953 124.7410 14.95217708310181
Source of the keplerian elements: AFSPC